Wind_Speed
16 18 19 18 18 19 20 20 21 22 23 23 23 23 23 23 22 22 21 21 21 21 20 19 19 18 18 18 17 16 15 14 14 13 13 14 14 14 15 14 13 13 13 13 13 14 14 15 15 15 15 15 15 15 16 16 15 16 18 18 17 18 18 19 20 19 19 19 19 18 17 16 15 15 15 15 16 15 16 17 18 19 19 19 19
20 21 20 19 19 19 20 19 21 22 22 23 23 23 23 22 22 22 21 21 21 20 19 19 19 18 18 17 17 15 14 14 13 13 13 13 13 13 13 14 13 13 12 13 14 16 15 16 16 16 16 16 16 16 16 16 16 17 18 17 17 18 18 18 18 18 18 17 17 17 16 15 15 15 16 15 15 15 16 17 19 21 20 19 19
23 23 21 21 20 19 19 20 21 21 22 23 23 24 23 22 22 21 21 21 20 19 18 19 19 18 18 17 16 16 14 14 14 13 13 13 13 12 13 13 13 13 13 14 15 16 16 16 16 17 17 17 17 17 17 17 17 17 18 17 17 18 17 17 17 17 17 16 16 16 16 15 15 15 16 16 16 16 17 18 19 20 20 19 19
25 24 22 22 20 19 20 21 21 21 21 22 23 23 22 22 21 21 20 20 19 18 17 19 19 18 17 16 16 15 14 14 14 13 14 13 13 13 12 13 13 14 15 15 16 17 16 17 16 17 17 17 18 17 17 16 17 17 18 17 18 18 17 16 16 16 16 15 15 16 18 17 16 16 17 17 18 18 19 20 20 21 21 20 20
26 25 24 22 21 20 20 21 21 21 20 20 22 22 22 21 20 20 19 19 18 17 18 18 18 17 17 16 16 14 14 14 14 14 14 14 13 13 13 14 14 15 15 16 17 17 17 17 16 16 17 17 17 17 16 16 17 17 17 17 17 17 17 16 16 16 16 16 15 17 19 19 18 17 18 18 18 19 20 21 21 21 21 21 20
26 25 26 24 22 21 21 22 21 21 19 20 21 21 21 20 19 19 18 18 18 18 18 18 17 17 16 16 15 13 14 15 14 14 15 14 13 13 14 14 15 15 15 16 16 17 16 16 16 16 17 17 17 17 17 17 16 16 16 16 16 17 17 16 16 16 16 17 16 17 19 20 20 19 18 19 19 20 20 21 21 21 21 21 21
25 26 26 25 25 23 21 21 21 21 20 20 20 19 19 19 19 18 18 18 17 18 18 18 17 17 16 15 13 12 14 15 14 14 15 14 13 13 14 15 14 14 15 16 16 16 15 15 17 17 17 17 17 17 17 16 16 16 16 16 16 16 16 15 15 15 16 18 18 18 20 21 21 19 18 18 19 19 20 20 20 20 20 20 20
26 26 25 27 26 23 21 20 21 21 21 20 20 19 18 18 18 17 18 17 17 17 17 18 17 16 16 15 12 11 14 14 14 14 14 14 13 13 14 14 14 14 15 15 15 14 14 15 17 17 17 17 17 17 17 16 16 16 16 15 16 16 15 14 15 15 16 18 19 19 21 21 21 19 17 18 19 18 19 19 19 19 19 19 19
26 25 25 27 25 23 21 21 21 21 21 20 19 18 18 17 17 17 17 17 17 17 17 17 17 17 16 15 12 11 13 14 14 13 12 13 13 14 14 15 14 14 14 14 14 14 14 15 16 16 17 16 16 17 17 16 16 16 15 15 15 15 14 14 15 17 17 18 18 18 19 20 19 18 17 18 18 18 19 19 18 18 19 18 19
26 25 27 27 26 24 22 21 21 20 20 19 19 18 17 17 16 16 16 16 17 17 17 17 17 17 16 16 14 12 13 15 15 13 12 13 14 14 15 15 14 14 14 14 14 14 14 15 16 16 17 16 16 16 16 16 16 15 15 15 16 15 15 15 17 18 18 18 17 17 17 18 18 17 17 17 16 17 18 18 18 18 18 18 18
24 25 27 26 24 23 22 21 20 20 19 19 18 17 17 16 16 16 16 17 17 18 17 17 17 17 16 16 15 14 13 14 15 14 13 14 14 14 15 15 14 14 14 14 14 14 15 16 16 16 16 15 15 16 17 16 16 16 15 16 16 16 15 17 20 20 19 17 16 16 16 16 17 17 17 17 17 18 18 18 18 18 17 17 18
25 26 26 25 23 22 22 20 20 20 19 18 17 17 17 16 16 16 16 17 17 17 17 16 16 16 16 16 16 15 14 14 15 16 15 14 14 14 15 15 14 15 14 14 14 14 15 16 16 16 16 14 14 15 17 16 16 16 16 16 15 15 16 18 20 20 18 16 16 17 16 17 18 18 18 18 18 18 18 18 18 18 17 18 17
27 27 26 25 23 22 21 20 20 19 19 18 17 17 17 17 16 16 16 17 17 17 16 16 17 17 16 17 16 16 15 14 15 16 16 15 15 15 15 16 15 15 14 14 14 14 15 15 16 17 16 14 14 15 16 16 17 17 16 16 15 14 15 16 18 18 17 17 17 17 17 19 20 19 19 19 18 17 18 18 18 18 18 17 17
28 28 27 25 23 21 20 20 19 19 19 18 18 17 17 17 16 17 17 17 17 16 16 17 17 17 17 17 17 16 16 15 15 16 17 16 15 15 15 15 15 14 14 13 14 14 15 15 15 16 15 14 14 14 15 16 17 16 15 16 15 14 15 16 17 18 19 18 18 18 18 19 20 19 19 18 17 17 17 18 17 17 17 17 16
30 29 27 25 23 21 20 20 20 19 19 18 18 17 17 17 16 17 16 16 16 16 17 18 17 17 18 18 17 17 17 16 15 15 16 16 16 15 14 15 14 14 13 13 13 13 14 14 14 14 14 13 13 13 14 15 16 15 14 15 14 14 16 17 19 19 20 19 18 17 18 18 19 19 18 17 17 16 17 17 17 17 17 16 15
30 29 27 25 23 22 21 20 20 20 19 18 18 17 17 16 16 16 16 16 17 18 18 18 18 17 18 18 17 18 17 16 15 15 16 16 15 14 14 14 14 13 13 12 12 12 13 13 14 14 14 14 13 12 13 14 15 15 14 15 14 15 16 18 19 19 19 19 18 17 18 17 18 18 17 17 16 16 16 16 16 16 15 15 14
29 29 28 26 24 23 21 20 20 19 19 18 17 17 16 16 16 16 16 16 17 19 19 19 19 18 18 18 18 18 17 17 16 16 16 16 15 14 13 13 13 13 12 12 12 12 12 12 13 15 15 14 14 13 13 14 15 16 14 14 15 16 16 17 18 18 18 19 18 17 17 17 17 17 16 15 15 15 15 15 15 14 14 13 13
29 29 28 27 25 23 22 22 21 20 19 18 17 16 16 16 16 16 17 17 18 19 19 19 18 19 18 18 18 18 18 17 17 17 17 17 16 15 13 13 13 13 13 13 13 12 12 13 14 15 15 15 15 14 14 15 15 16 15 14 14 15 16 17 18 17 18 18 18 17 17 16 15 15 15 15 14 14 14 14 13 13 13 12 12
28 28 28 27 25 24 23 23 22 21 20 19 18 16 15 16 16 17 17 18 19 19 19 18 18 18 17 17 18 18 18 18 17 17 17 17 16 15 14 13 12 12 13 13 14 14 14 14 14 14 14 15 16 15 14 13 14 15 15 15 15 15 15 16 17 17 16 17 17 17 16 15 14 14 14 14 14 13 13 13 12 12 12 11 11
25 26 26 25 24 25 25 24 23 22 21 19 18 17 16 16 17 17 18 18 19 19 18 18 18 17 17 17 18 18 17 16 16 16 16 16 15 15 14 13 12 12 12 13 14 14 14 14 14 14 15 16 16 16 14 11 12 15 15 16 16 16 16 16 16 16 15 16 16 16 16 15 14 14 13 13 13 13 12 12 12 11 11 10 10
24 24 23 23 24 26 26 25 24 22 21 20 19 18 16 16 17 18 18 19 19 19 18 18 18 17 17 17 17 17 16 16 16 16 15 15 15 15 14 13 13 12 12 13 13 14 14 14 14 14 15 16 16 16 15 11 11 13 14 16 17 17 17 15 15 14 14 15 14 15 15 14 14 13 13 12 12 12 11 11 11 10 10 10 10
25 25 24 24 25 26 26 25 24 22 21 20 20 18 17 17 18 19 19 19 19 18 18 18 18 17 17 17 17 16 16 16 16 16 15 15 15 15 14 13 13 13 12 12 13 14 14 14 14 14 14 15 15 15 14 11 9 10 12 14 16 16 16 14 12 13 14 14 14 14 14 13 13 13 12 12 11 11 10 10 10 9 9 9 9
25 26 26 25 25 26 26 26 24 21 21 21 20 19 18 18 19 20 19 19 19 18 18 18 18 17 16 16 16 16 16 15 15 16 16 15 15 14 14 14 14 14 13 13 13 13 14 14 15 14 14 14 13 13 12 9 7 9 12 14 15 15 15 12 10 13 14 14 14 13 13 13 13 12 12 11 11 10 10 9 9 9 9 9 9
25 27 26 25 25 25 26 26 24 22 21 21 21 20 18 19 20 20 19 19 19 18 17 17 17 17 16 15 15 15 15 15 15 15 16 16 15 14 15 15 15 14 14 14 13 13 13 13 13 13 14 13 13 11 10 7 5 7 12 14 15 15 15 11 10 13 14 14 15 14 13 13 12 12 11 11 10 10 10 9 9 9 8 8 8
26 27 26 25 24 25 27 26 24 22 20 22 23 21 19 20 19 19 18 17 18 18 17 16 16 16 16 15 14 15 16 16 16 15 16 16 15 15 16 16 15 14 14 14 13 12 11 10 10 9 10 10 10 10 9 7 5 7 12 13 14 15 13 9 9 13 13 14 14 14 13 12 12 11 11 11 10 9 9 9 9 8 8 8 7
27 27 26 25 24 24 27 26 25 22 19 22 23 21 20 20 19 18 18 16 16 18 17 16 16 16 16 15 14 16 16 16 15 15 15 14 13 14 14 14 13 13 12 12 11 10 9 6 6 6 6 7 7 7 7 6 4 7 12 13 13 14 11 8 10 12 12 13 13 13 12 12 12 11 11 10 9 9 9 9 9 8 8 7 7
26 27 27 25 24 24 26 27 25 22 20 22 22 21 21 20 19 18 17 16 15 16 16 16 16 16 17 14 13 15 16 14 14 14 13 13 12 12 12 11 11 11 10 9 8 8 7 4 3 4 4 6 7 7 7 7 6 7 12 14 13 12 11 8 10 12 12 13 12 12 12 11 11 11 10 10 9 9 9 9 8 8 7 7 6
25 27 27 26 25 24 26 28 25 23 21 22 22 22 21 20 19 17 16 15 16 15 15 15 15 17 18 16 14 13 14 14 14 13 11 11 11 10 10 10 9 9 8 8 8 7 6 3 1 3 4 6 7 9 8 8 8 9 14 15 13 12 10 9 10 11 11 12 12 11 11 11 11 10 10 9 9 9 8 8 8 8 7 7 7
25 27 28 26 25 26 27 27 25 23 22 22 22 20 20 20 20 19 16 15 16 15 15 15 16 16 17 17 15 13 13 13 13 13 11 10 10 10 10 10 9 9 9 7 7 6 6 5 4 5 6 7 8 10 9 8 8 10 15 16 13 13 10 9 10 11 11 11 11 11 10 10 10 10 10 9 9 9 8 8 8 8 8 7 7
26 27 27 27 26 27 27 27 25 23 22 23 23 21 20 20 21 20 17 16 15 15 15 16 16 16 15 15 14 15 14 12 13 13 12 11 11 10 10 10 10 10 9 7 7 7 7 6 6 5 5 7 7 9 9 9 9 11 15 16 16 14 10 10 11 11 11 11 11 11 10 10 10 9 9 9 9 9 9 8 8 8 8 7 7
27 27 27 27 28 28 26 26 24 23 23 23 24 22 20 21 21 20 18 17 15 16 16 15 17 17 14 13 13 15 14 13 13 13 13 12 12 10 10 10 9 9 8 8 8 8 7 6 6 4 6 7 5 7 9 9 9 11 16 17 17 16 12 11 11 12 11 11 12 12 11 10 9 9 9 9 8 8 8 8 8 8 7 7 7
27 26 27 28 29 28 25 25 24 23 23 22 24 23 21 21 21 19 18 17 17 18 16 16 19 17 14 13 15 16 16 15 15 14 14 14 13 12 11 9 9 9 8 8 7 7 7 7 7 5 6 5 4 7 10 13 13 13 16 17 18 17 14 11 11 12 12 11 12 12 12 11 10 9 8 8 8 8 8 8 8 8 7 7 7
28 26 28 29 29 27 26 25 24 24 23 22 23 23 21 22 21 19 18 17 18 18 16 19 21 17 14 16 18 18 17 17 16 15 14 14 14 13 12 11 10 9 8 8 7 7 8 8 7 6 5 5 7 8 9 13 16 16 18 15 17 18 15 13 11 11 11 11 12 11 11 11 11 10 9 8 8 7 7 7 7 7 7 7 7
28 28 28 30 28 27 28 26 25 25 23 22 22 23 21 21 20 18 18 17 17 16 18 21 21 16 15 17 18 18 17 17 17 16 15 14 13 12 12 12 10 9 8 8 8 8 8 7 6 6 6 8 9 8 8 11 14 19 18 12 14 17 16 14 12 10 9 10 11 10 11 11 10 10 10 9 9 8 7 7 7 7 7 7 7
29 30 28 29 28 27 28 26 26 25 23 24 23 23 21 20 20 17 18 18 16 17 19 19 17 16 17 16 16 17 16 15 14 14 13 13 12 11 12 12 10 8 8 7 7 8 7 6 6 7 7 7 8 7 7 9 12 17 15 8 10 15 16 16 14 10 8 9 10 9 10 10 10 10 10 9 9 9 9 8 8 8 8 8 7
29 32 29 29 28 28 28 27 27 25 23 25 23 23 22 21 20 17 19 19 16 17 16 14 14 17 18 16 15 15 14 13 12 12 11 11 11 11 11 11 9 7 7 6 6 7 7 7 7 8 7 6 7 7 9 11 12 13 12 9 9 13 16 16 15 12 8 8 8 8 9 9 9 9 9 9 9 9 9 9 8 9 8 8 8
30 33 31 29 29 29 29 28 29 25 24 25 22 23 22 21 21 19 19 18 17 17 14 13 14 17 17 16 15 14 14 12 12 11 11 10 9 10 10 10 8 7 7 7 7 8 8 7 7 8 7 7 8 8 8 10 12 12 12 12 10 11 15 15 15 12 9 9 7 7 7 8 8 8 8 8 8 9 9 9 9 9 9 9 8
30 33 31 30 30 31 30 30 29 25 26 26 22 23 21 20 20 19 19 16 16 17 15 15 17 17 16 16 15 13 14 13 12 11 10 11 10 9 9 8 8 7 8 9 9 9 9 8 8 8 7 7 9 8 8 8 10 13 12 12 10 9 12 13 13 12 11 10 8 7 7 7 8 8 8 7 8 8 8 8 8 9 9 9 9
31 32 31 30 30 31 31 31 30 26 27 27 23 23 21 20 20 19 19 15 15 17 18 20 20 17 16 15 15 14 14 14 12 10 9 10 10 10 9 9 8 7 8 9 10 10 9 9 10 9 8 8 7 7 7 6 10 14 13 12 10 8 10 10 10 12 12 12 10 9 8 8 7 7 8 7 6 7 7 7 8 8 9 9 9
33 32 31 31 31 31 32 32 31 27 28 27 25 25 23 22 21 20 19 16 16 16 18 22 20 18 16 14 15 14 14 13 12 10 8 8 9 10 10 9 9 7 8 9 9 10 10 10 10 9 8 8 7 6 7 9 15 16 13 11 10 8 9 8 10 12 13 13 12 11 11 11 9 8 8 8 6 6 7 7 7 7 8 8 8
33 35 30 31 33 31 33 34 31 28 29 29 27 26 25 24 24 23 20 19 18 16 17 20 18 17 15 14 14 14 14 12 12 11 9 8 8 10 10 10 9 8 8 9 9 10 9 10 9 8 8 8 8 8 8 12 15 13 11 11 9 8 9 10 11 12 12 13 13 14 14 13 12 9 9 9 7 6 7 7 6 6 7 8 7
34 37 31 31 33 31 34 35 32 30 30 30 27 27 26 25 25 25 23 20 20 19 19 19 17 16 14 14 14 14 14 13 12 12 10 8 9 10 10 10 10 9 9 9 10 10 9 10 9 9 8 7 9 9 8 9 10 10 11 8 6 7 9 10 12 12 12 11 12 15 17 15 13 11 9 10 9 7 7 7 6 6 6 6 6
35 38 32 31 32 32 35 35 32 32 31 31 28 27 27 24 23 26 24 19 19 21 20 19 18 17 15 15 16 15 15 14 13 12 11 9 8 9 10 10 9 9 9 9 10 9 9 9 9 9 8 7 10 10 10 9 7 9 9 4 3 5 5 9 12 14 15 13 11 15 18 16 13 11 9 10 10 9 9 8 7 7 7 6 5
35 37 33 33 32 32 36 36 34 33 33 32 29 27 27 23 21 23 21 17 18 19 17 19 19 18 18 17 17 16 15 15 14 13 12 10 8 9 10 10 9 8 8 8 9 9 9 9 8 9 8 7 10 10 11 9 6 7 7 3 2 3 1 7 11 14 16 16 13 16 20 17 13 11 11 11 10 9 10 10 8 8 8 7 6
34 36 34 34 32 33 38 37 35 34 34 33 30 28 27 23 22 23 20 17 18 18 17 20 21 19 19 18 17 16 15 15 14 13 12 10 9 9 9 9 8 8 7 7 8 9 9 8 7 9 8 6 9 10 10 10 7 8 8 4 2 2 2 5 6 7 10 15 16 16 19 19 13 11 13 13 12 11 12 11 10 9 9 9 8
34 36 35 35 33 34 38 37 36 34 35 34 31 30 29 26 26 26 24 22 21 20 19 22 23 21 19 18 17 16 15 15 14 14 13 11 10 10 9 9 9 9 8 7 8 8 8 8 7 9 8 5 8 10 9 9 8 8 8 5 3 3 3 4 3 2 5 11 15 16 18 19 14 11 15 15 13 13 13 12 11 8 7 8 8
34 36 35 34 33 35 38 38 37 35 35 36 32 30 31 29 28 27 26 27 26 23 22 22 23 21 19 19 18 17 17 16 14 15 15 13 12 11 10 10 11 10 9 8 8 9 9 8 7 7 7 6 7 8 8 8 7 7 8 5 6 6 3 4 4 2 2 5 12 17 18 19 17 13 16 18 16 13 13 13 11 8 6 5 6
33 36 34 35 35 36 38 38 38 36 36 37 34 32 33 31 29 27 24 28 30 26 23 22 21 21 20 20 19 18 18 18 16 15 16 15 13 13 11 11 11 9 9 8 8 10 9 9 8 7 7 8 7 6 6 8 7 6 8 5 6 8 4 4 5 5 3 0 5 11 14 19 21 16 16 19 18 13 14 15 12 11 8 6 6
33 37 36 35 36 37 38 38 38 37 36 38 36 33 34 33 31 28 23 26 29 27 24 22 21 22 21 21 20 18 19 19 17 16 17 16 14 14 13 12 11 10 10 8 7 9 9 10 9 7 8 10 9 6 4 5 4 3 6 4 3 4 3 2 3 3 3 2 1 4 6 14 19 18 18 19 18 14 14 15 12 12 11 9 8
33 36 36 34 35 37 38 38 37 38 37 38 38 35 34 34 33 29 24 24 27 28 25 22 22 21 20 22 22 19 19 19 18 16 16 16 15 15 15 14 13 11 11 9 8 10 11 10 9 7 9 10 10 8 4 3 2 1 4 5 2 1 1 0 0 2 2 3 2 3 1 10 15 15 17 17 17 17 15 14 12 13 13 12 11
32 35 36 34 35 37 39 39 38 38 38 39 39 37 35 35 36 32 27 25 27 30 28 23 23 23 20 23 24 22 19 19 19 18 16 17 16 15 15 15 15 13 12 12 11 12 12 11 9 8 9 9 10 10 6 5 3 2 4 5 3 2 1 1 1 2 3 4 1 3 3 6 11 10 11 10 11 16 15 12 12 13 13 14 13
Wind_Direction
151 141 131 128 128 129 125 123 119 119 118 118 117 117 119 120 122 122 123 121 118 116 114 113 111 109 106 106 106 105 107 107 106 104 102 99 95 91 87 85 84 84 88 91 95 94 91 92 92 92 92 94 98 98 98 99 99 97 96 97 103 102 97 97 97 96 96 95 95 96 98 101 100 97 92 89 90 90 91 95 96 95 95 95 95
152 143 135 132 131 130 126 125 123 122 120 120 119 119 120 122 125 126 124 120 118 116 115 114 112 111 110 110 109 108 109 108 106 103 100 98 94 90 83 80 81 82 84 87 91 92 90 92 93 94 95 95 96 97 96 96 96 95 97 98 101 101 97 97 97 99 98 96 95 95 97 99 98 95 93 91 91 92 94 96 96 95 95 95 95
148 144 140 135 134 133 130 128 127 126 125 124 123 122 122 123 125 124 121 117 116 116 118 117 114 112 112 111 110 108 108 109 107 105 103 97 90 85 81 77 76 77 78 80 84 89 91 93 94 95 97 97 95 95 93 93 92 92 95 97 99 100 100 101 101 101 99 97 98 100 98 96 95 93 94 95 94 96 96 96 96 96 96 96 96
149 146 142 138 138 138 134 132 130 130 129 127 126 124 122 123 123 122 119 117 117 117 117 115 113 112 111 111 109 108 110 112 111 110 106 96 89 85 84 80 76 76 78 79 81 87 91 93 93 95 96 95 94 93 92 93 93 93 95 96 98 100 102 103 102 99 99 100 104 105 101 97 95 94 95 97 97 97 97 96 96 97 97 96 95
149 147 142 140 141 141 136 134 134 134 130 127 127 125 124 123 123 121 120 119 118 116 114 113 114 113 110 109 109 114 118 115 115 114 107 99 92 89 88 86 83 82 83 83 84 88 92 94 93 92 92 92 92 93 94 94 95 97 98 99 99 102 104 104 102 100 102 103 105 106 103 101 98 96 96 97 98 97 97 96 96 97 96 96 95
148 144 143 141 141 141 138 136 136 134 130 128 127 127 126 125 124 123 121 119 118 116 115 115 115 113 110 110 113 121 119 116 117 112 106 101 94 93 93 92 90 88 89 89 90 91 93 96 95 93 92 92 93 94 95 95 98 101 103 104 103 105 105 104 103 102 105 105 103 104 105 105 101 98 98 99 98 97 96 95 94 94 94 94 94
145 142 143 143 142 140 140 138 135 133 130 129 128 127 128 128 127 124 122 119 118 117 116 115 114 112 110 109 115 121 116 116 118 110 106 102 98 97 96 95 94 92 92 94 95 95 96 96 96 95 94 94 96 95 95 96 100 103 105 106 107 109 108 107 106 106 110 108 103 103 104 102 101 101 100 101 99 97 96 94 93 93 92 92 93
143 142 144 145 142 140 140 137 135 132 131 130 129 129 129 128 127 123 121 120 118 117 116 114 114 114 112 109 113 115 109 111 114 111 106 102 101 99 98 98 97 97 97 98 98 98 98 97 96 96 97 96 97 97 96 97 100 103 104 106 109 110 110 112 113 114 115 110 107 106 104 102 101 100 100 100 100 98 97 95 94 94 93 93 95
143 142 144 143 139 138 138 136 133 132 132 132 131 130 129 128 125 122 121 120 119 118 116 114 114 115 114 113 112 108 103 105 106 108 106 100 100 99 100 100 99 100 100 101 101 101 100 98 97 98 100 98 98 98 97 99 100 102 103 104 108 110 111 113 118 120 114 108 108 107 105 105 102 101 101 101 100 98 98 97 97 96 95 95 95
142 142 143 139 136 138 138 136 134 134 133 132 132 130 129 127 125 124 122 121 119 116 116 115 115 116 116 116 113 106 101 103 103 106 108 103 101 103 104 103 102 102 102 103 103 103 102 100 99 100 101 100 99 97 96 99 100 100 100 102 102 106 110 112 119 118 110 106 106 106 105 106 104 103 103 103 102 101 100 98 96 95 95 96 96
142 143 142 138 138 139 138 137 135 135 133 132 131 129 128 128 127 125 123 122 119 116 115 115 115 116 116 116 115 111 105 103 104 107 107 104 105 105 104 104 106 105 104 105 106 106 104 102 101 101 102 101 99 96 94 95 97 97 99 102 100 102 107 110 115 112 107 106 107 106 106 104 104 104 106 104 102 101 100 97 94 94 97 99 99
143 146 142 139 139 138 138 137 137 136 133 133 131 130 130 128 128 125 123 121 118 116 115 116 116 115 115 115 114 114 112 108 107 108 107 104 105 106 105 105 105 105 106 108 108 108 106 105 104 104 103 102 100 97 96 97 97 97 99 101 100 103 110 114 114 112 108 109 109 109 107 104 104 106 108 105 102 101 100 96 94 96 99 101 100
142 145 141 139 138 139 140 138 138 136 134 134 133 133 131 130 128 125 123 120 118 118 117 117 116 115 116 115 115 116 115 113 109 109 109 106 103 106 107 104 104 106 108 110 110 110 109 108 108 107 106 104 101 99 100 101 101 100 101 100 99 102 113 116 114 113 111 110 109 107 106 105 106 108 107 104 103 102 99 97 97 99 99 100 98
141 143 141 140 140 141 140 139 138 136 137 136 136 134 132 132 128 125 124 123 122 120 118 114 113 115 115 114 116 118 117 114 111 108 108 108 105 106 108 107 107 108 110 111 113 114 112 109 109 108 107 106 102 101 102 103 104 103 101 98 99 103 112 114 113 114 112 111 108 106 105 106 108 108 106 102 101 100 98 99 98 98 98 98 97
143 142 142 142 141 141 141 140 139 138 139 138 138 136 134 132 128 127 125 125 124 120 117 114 114 115 115 115 117 119 117 115 111 107 107 108 106 105 107 108 107 107 108 109 112 114 113 109 108 108 108 108 107 105 104 104 105 103 100 98 101 107 113 116 116 116 112 109 107 107 105 105 108 107 104 101 100 100 100 100 100 99 100 99 98
143 143 143 142 142 143 143 143 142 140 141 141 140 136 135 132 130 128 126 127 125 121 118 116 116 115 116 117 119 119 118 116 113 111 110 110 109 105 104 104 104 105 106 108 110 112 114 111 112 115 114 115 114 110 107 106 104 103 102 99 104 111 115 119 119 117 113 109 107 106 103 104 108 106 103 102 102 103 102 102 102 102 101 101 101
144 145 143 143 143 144 144 144 143 141 142 142 141 137 134 131 131 127 126 128 124 122 119 118 118 116 117 118 120 119 118 117 115 115 113 115 113 109 106 104 105 105 106 112 113 114 117 116 117 119 119 120 117 113 108 103 102 102 103 101 105 112 117 121 121 118 114 110 108 105 102 104 107 106 106 106 105 105 105 104 104 104 104 104 103
146 146 144 145 145 145 145 145 144 143 142 142 141 137 134 131 130 127 127 126 123 122 120 120 119 119 119 120 120 118 118 116 115 116 116 117 116 115 112 108 107 104 105 109 112 115 120 121 120 120 119 120 118 114 107 100 99 101 103 102 104 113 118 122 123 119 115 112 110 108 106 107 108 110 110 109 109 107 108 107 107 107 106 106 105
145 145 145 145 146 147 146 146 145 144 143 143 141 138 135 132 128 128 128 127 125 123 122 121 119 119 120 120 119 119 118 116 116 116 116 116 115 115 113 110 108 106 103 102 108 114 121 123 122 121 119 118 116 115 109 100 98 101 102 103 107 114 118 122 124 119 116 115 113 112 112 113 114 115 115 113 113 112 112 112 112 111 110 111 109
144 145 145 145 148 149 147 148 147 146 145 143 141 139 137 133 131 130 130 130 128 126 124 121 118 118 118 117 117 118 117 116 116 114 115 116 116 115 112 113 112 109 103 100 105 112 119 122 121 121 120 117 115 115 112 104 103 103 103 106 108 111 116 122 123 120 118 117 117 117 117 119 119 119 120 119 118 117 118 118 117 115 114 114 112
146 147 147 149 151 151 149 150 149 147 145 143 141 139 138 136 134 134 134 133 130 127 125 121 120 119 118 117 116 117 117 117 117 115 116 117 119 117 114 115 113 111 105 103 106 110 115 118 120 121 121 120 120 120 117 113 108 101 103 110 111 109 112 118 120 122 122 122 122 122 124 125 125 124 124 123 123 122 122 122 121 120 118 117 116
151 150 152 154 154 152 151 150 148 148 148 146 143 142 142 140 138 139 138 135 131 127 125 124 123 122 121 119 118 119 119 119 119 119 117 116 118 117 116 115 113 113 110 111 111 111 114 114 118 118 120 124 127 128 124 121 111 103 109 115 115 110 108 112 121 127 128 130 129 130 132 132 130 129 128 126 125 125 125 126 126 125 123 122 120
152 151 153 156 155 154 154 150 148 153 152 149 146 146 147 144 142 142 140 136 133 130 128 128 126 125 122 121 122 123 123 121 121 119 117 117 118 117 117 115 113 114 113 114 114 112 112 114 118 119 123 127 131 132 126 124 113 108 115 119 120 115 116 125 134 134 133 135 134 135 137 136 135 133 133 132 131 131 131 133 133 132 129 126 125
151 150 153 157 158 157 155 150 151 156 153 153 151 149 150 148 145 144 141 138 137 135 136 135 131 129 125 125 129 128 126 124 124 122 122 122 121 120 119 119 118 118 118 117 118 117 115 116 119 121 124 126 132 131 121 120 120 120 120 120 122 121 130 147 146 139 138 137 136 136 138 139 138 137 139 140 140 139 139 140 140 139 137 133 131
149 150 153 156 160 160 157 154 155 155 156 159 153 151 153 150 148 147 144 143 142 142 144 142 136 134 131 132 133 129 128 128 127 125 125 126 125 124 122 122 123 123 122 121 125 128 126 121 117 120 123 125 130 128 122 124 128 139 138 130 124 128 145 159 145 142 144 142 140 139 139 140 140 141 144 145 146 147 149 149 146 143 141 139 138
148 150 154 157 161 163 160 156 154 155 163 162 153 154 154 152 152 150 149 148 148 148 150 147 142 140 135 135 135 132 132 129 129 127 126 127 127 127 124 124 126 126 125 126 130 133 130 120 110 118 128 131 135 135 133 140 146 149 151 139 128 140 161 165 145 144 146 145 143 143 142 142 143 145 145 145 147 152 155 155 152 148 147 145 141
149 152 156 158 160 164 163 156 154 159 168 163 156 157 156 155 155 154 156 152 154 157 155 152 151 147 138 139 143 138 137 133 134 134 131 131 130 128 125 123 126 126 124 128 133 131 124 119 111 113 140 143 141 149 142 150 168 163 156 143 137 157 173 167 154 150 146 144 144 144 145 145 146 147 146 146 146 150 155 157 155 153 154 151 143
150 153 157 159 161 166 165 159 156 160 168 166 159 159 159 158 154 158 163 157 161 162 155 156 156 151 145 150 154 143 141 141 141 143 140 136 135 133 131 127 127 126 121 124 129 128 125 134 133 108 148 151 136 147 147 156 174 170 161 150 151 174 181 171 163 158 152 148 147 146 146 145 146 147 147 147 144 144 147 152 155 156 157 155 149
151 153 158 161 164 166 165 162 158 162 171 167 159 158 160 158 156 164 169 165 163 159 155 157 157 155 151 155 161 155 153 153 149 148 147 143 140 138 137 135 132 132 131 129 124 128 136 136 120 105 138 157 143 146 146 151 163 167 164 156 163 180 181 175 169 165 162 157 154 153 151 150 150 149 149 149 145 141 141 145 150 154 157 158 156
154 156 159 161 165 166 166 164 161 167 172 166 160 158 162 162 163 169 172 169 161 157 158 154 156 160 157 158 165 166 163 163 156 150 150 148 146 143 139 140 138 133 135 138 129 130 132 126 119 107 137 155 148 156 160 153 151 163 168 166 173 181 181 176 173 172 170 167 164 162 162 161 159 156 153 151 148 145 144 146 148 150 155 159 160
158 159 159 162 164 164 165 166 166 170 169 168 164 159 164 170 170 171 171 168 158 155 156 153 161 163 156 155 161 166 165 162 156 151 151 152 151 148 141 141 141 136 141 146 142 140 135 132 135 139 156 151 142 157 171 174 162 162 170 175 178 180 183 177 174 176 175 175 174 171 172 171 169 165 160 157 155 151 149 151 152 154 157 159 159
162 164 161 162 162 164 166 166 169 169 167 169 168 163 168 173 171 166 163 163 158 155 158 161 162 154 145 147 152 158 161 159 154 149 149 151 152 151 148 150 153 156 160 154 150 151 144 144 143 143 148 143 155 162 176 190 182 163 161 175 183 181 183 179 177 179 179 180 179 178 178 178 178 175 172 170 167 162 159 157 156 160 163 164 165
166 167 163 163 163 165 165 166 167 165 167 168 167 166 167 169 167 160 156 158 159 162 168 166 157 146 141 143 147 152 155 156 154 149 147 147 150 155 161 165 165 166 168 158 155 151 138 140 141 143 145 138 154 158 158 173 179 166 154 167 184 183 182 182 183 182 182 183 181 183 182 182 184 182 184 183 183 181 174 170 167 168 170 173 175
166 167 164 163 165 165 163 166 166 164 168 165 162 163 162 163 163 161 160 160 163 168 167 162 158 156 152 147 148 150 151 154 155 154 151 149 152 158 165 167 168 168 166 161 161 157 140 140 146 152 153 143 150 154 146 151 163 162 154 156 175 183 184 181 185 188 185 184 182 186 186 185 187 186 190 190 192 194 190 188 184 184 184 185 187
164 166 167 164 166 165 161 165 168 167 167 164 163 161 161 161 160 164 166 164 166 164 159 160 165 167 163 156 156 153 151 153 154 155 155 157 156 156 161 162 167 170 164 161 167 170 156 146 148 149 149 148 159 166 154 142 141 152 156 152 158 176 184 180 186 195 187 179 180 186 189 189 190 191 193 191 194 199 200 200 199 201 200 200 204
164 166 170 167 166 164 162 166 169 169 165 163 164 163 164 164 164 166 165 165 164 159 158 164 168 169 168 163 162 160 157 155 150 152 155 160 157 155 161 161 164 167 160 162 169 170 164 155 150 147 147 155 162 153 144 140 136 144 155 150 146 167 181 183 187 192 184 178 178 182 187 189 191 195 195 194 198 201 204 206 208 211 212 212 215
166 167 170 169 167 163 164 169 170 169 165 164 165 164 167 167 169 168 165 169 168 163 165 169 166 167 170 167 165 162 161 158 149 150 156 161 161 156 159 157 157 158 156 160 165 163 157 152 146 144 145 154 155 144 146 153 152 153 155 148 142 158 176 183 183 185 186 183 183 185 186 187 191 197 199 200 205 209 209 208 212 216 220 224 222
167 169 172 171 167 162 166 169 170 170 164 165 165 165 169 169 170 167 164 170 171 169 169 169 168 168 170 169 167 160 160 161 150 148 153 155 157 154 152 149 144 147 153 155 157 158 149 135 133 136 140 154 157 152 162 175 168 159 150 142 139 147 161 169 173 181 188 186 187 189 189 189 191 197 200 204 207 212 215 213 215 217 221 228 228
169 171 173 172 167 162 166 169 170 169 164 166 165 166 171 167 164 164 168 172 171 171 170 169 171 170 170 166 164 160 158 162 154 147 151 151 151 154 150 141 142 144 147 150 150 154 148 136 135 133 136 153 162 167 177 176 158 151 139 135 141 145 149 159 174 182 187 189 187 184 189 192 189 195 205 209 208 211 219 220 220 221 224 227 228
169 171 173 173 168 164 165 168 171 168 165 167 167 169 170 161 161 168 175 176 171 169 166 169 174 174 172 164 162 161 159 163 161 156 155 155 153 156 153 141 143 141 140 149 148 146 148 146 143 136 137 147 150 162 157 127 128 136 133 139 148 151 156 169 180 180 185 193 193 188 190 191 186 189 202 210 211 208 213 217 218 221 223 224 226
167 172 175 173 170 167 166 168 172 171 167 169 170 171 169 163 166 171 173 174 171 166 160 165 175 178 175 169 166 164 164 166 167 167 164 158 154 157 158 145 140 138 136 146 145 142 146 147 147 145 144 146 144 150 148 130 125 124 128 143 155 167 177 182 182 182 186 191 193 196 194 189 184 181 188 201 208 209 209 211 214 222 223 224 232
167 174 179 173 171 169 167 168 171 172 170 170 172 171 169 169 170 171 172 174 175 171 166 169 178 181 179 174 169 166 169 171 170 174 171 159 158 161 158 148 141 140 136 142 147 146 147 147 151 159 156 155 155 157 165 155 139 137 139 144 162 184 199 203 197 193 191 184 184 196 197 187 183 178 178 192 204 212 215 209 207 222 228 229 241
167 174 179 174 171 169 168 169 171 173 172 172 173 170 170 172 172 174 173 173 177 176 175 179 181 181 179 175 171 169 172 176 175 177 175 163 162 163 158 152 147 147 147 151 154 153 156 153 153 167 171 169 170 175 183 175 160 159 151 143 189 191 220 234 219 205 202 196 181 185 190 184 182 181 182 195 205 215 221 216 214 223 232 240 245
167 173 177 175 172 170 170 170 172 174 173 173 175 173 171 171 173 176 175 172 176 175 173 179 180 174 175 176 174 173 174 177 178 178 177 171 168 168 164 161 155 151 155 159 158 157 163 162 161 175 180 170 170 175 184 187 192 185 166 148 179 159 243 247 232 219 209 206 197 188 188 186 181 184 189 191 193 209 218 217 223 228 233 244 244
169 173 176 176 175 173 172 172 173 176 176 175 175 176 175 172 172 174 176 175 176 177 169 171 177 172 172 178 175 176 176 175 180 179 177 176 176 179 175 170 165 159 162 166 163 160 164 169 172 183 185 172 171 174 188 202 198 184 178 165 145 149 228 225 229 229 209 206 205 194 188 187 182 188 199 194 185 197 208 211 223 235 241 248 246
172 175 176 178 177 175 174 174 175 176 178 177 176 179 180 177 176 175 176 176 177 185 181 171 174 174 173 178 179 179 176 175 180 178 180 185 184 187 184 181 182 170 167 175 173 170 172 173 174 184 188 176 178 185 194 201 187 177 187 187 191 220 220 195 189 217 224 216 202 188 185 189 187 189 199 199 193 196 204 210 219 229 238 241 240
174 176 176 178 179 176 175 176 177 178 180 179 178 181 182 182 184 182 178 177 178 187 190 178 175 178 177 178 183 184 178 179 185 179 184 192 189 191 187 184 189 178 173 180 178 179 180 178 175 179 185 172 177 192 192 194 196 197 204 221 252 257 232 182 178 163 233 233 197 189 192 197 197 196 195 198 203 206 208 211 218 223 225 229 230
173 176 178 179 180 178 177 178 179 180 182 182 181 182 184 185 189 190 183 181 181 183 187 182 176 179 182 181 182 183 178 183 191 185 187 194 193 195 191 185 187 183 183 185 179 180 180 183 185 181 186 180 176 188 196 201 203 198 202 230 264 258 249 179 161 144 151 222 206 203 205 201 202 205 199 200 207 211 211 213 223 229 230 237 236
174 177 180 181 182 180 179 180 181 182 183 184 184 184 185 186 189 194 189 182 184 182 181 184 182 183 186 184 181 180 179 183 192 190 189 195 196 196 196 191 190 191 191 188 181 184 185 188 189 187 191 186 181 190 202 202 200 187 197 208 232 236 257 199 157 134 122 93 252 250 215 194 202 211 207 208 214 216 216 218 229 237 239 241 239
177 178 181 182 182 181 180 181 183 184 186 187 188 186 186 187 190 197 192 182 184 183 179 182 187 189 189 187 185 182 179 183 192 195 192 197 198 196 198 196 194 195 193 189 184 184 188 189 186 188 194 189 189 199 203 193 193 125 185 200 196 124 57 283 64 34 65 121 207 306 94 171 192 211 210 209 215 215 216 222 231 240 241 241 242
178 177 179 182 183 183 182 184 185 186 187 189 190 189 188 188 191 196 195 185 182 182 181 181 184 189 190 187 188 187 183 182 190 198 195 196 199 199 201 198 194 193 196 199 193 183 185 188 186 186 188 189 194 200 199 192 184 145 180 210 199 121 112 219 39 57 100 110 185 340 27 167 185 194 193 195 205 207 213 225 233 238 240 242 245
Height
811 811 812 812 814 814 816 816 817 818 818 819 819 821 821 822 823 824 824 825 826 827 828 829 831 832 833 834 835 835 835 835 835 835 835 835 835 836 836 837 837 838 838 839 840 840 841 841 841 842 842 842 843 843 843 844 844 844 844 844 844 844 845 846 846 847 848 849 850 851 851 852 852 853 853 853 853 854 854 854 854 853 853 854 854
810 812 812 813 815 815 817 817 818 819 819 820 821 822 823 824 825 825 826 826 827 828 830 831 832 834 835 835 836 836 836 835 836 836 835 835 836 836 837 838 838 838 839 839 840 841 842 842 842 842 842 843 843 844 844 845 844 845 845 844 844 844 845 846 847 848 849 850 851 852 852 852 853 853 854 854 854 855 855 855 855 854 854 855 855
810 812 813 814 815 816 817 818 819 820 821 821 822 824 824 826 826 827 827 828 829 830 831 832 834 835 836 836 836 836 836 836 836 836 836 836 837 837 838 838 838 839 839 840 841 841 842 842 842 842 843 843 844 845 845 845 845 846 845 845 846 846 847 848 849 849 850 851 852 853 853 854 854 854 855 855 855 855 855 855 855 855 856 856 857
811 812 813 815 816 817 818 819 820 821 822 822 823 824 825 827 827 828 828 829 830 832 833 834 835 836 837 837 837 837 836 837 837 837 837 838 838 839 839 840 840 840 840 841 841 842 842 842 843 843 844 844 845 845 846 846 846 847 847 847 847 848 849 849 850 851 851 852 853 853 854 854 855 856 856 856 856 856 856 856 856 856 857 857 858
812 813 814 815 816 818 819 820 821 821 823 823 824 825 826 827 828 829 830 831 832 833 834 835 836 837 837 837 837 837 837 838 838 838 838 839 840 841 841 841 841 842 842 842 842 842 843 843 843 844 845 845 846 846 847 847 847 848 848 849 849 850 850 851 852 852 853 853 854 854 854 855 856 856 857 857 857 857 857 857 858 858 858 858 859
812 813 815 815 817 818 820 820 821 822 823 824 825 826 827 828 829 830 831 832 833 834 835 836 837 838 838 838 837 837 838 839 839 839 839 841 842 842 842 843 843 843 843 843 843 843 843 844 845 845 846 847 847 847 848 848 849 849 849 850 850 851 852 852 853 853 854 854 855 855 855 856 856 857 858 858 858 859 858 858 859 859 859 859 860
811 813 815 816 818 819 820 821 822 823 824 825 826 827 828 829 831 831 832 833 834 835 836 837 838 839 839 839 837 837 839 840 840 840 841 842 843 843 843 844 844 844 845 845 845 845 845 845 846 847 848 848 848 848 849 849 850 850 851 851 852 852 853 853 854 854 855 855 855 856 856 857 857 857 859 859 859 860 860 860 860 860 860 860 861
812 814 815 817 818 819 821 822 823 824 825 826 827 828 829 830 831 832 833 834 835 835 837 838 838 839 840 840 838 837 839 841 841 841 841 842 844 844 844 845 845 845 846 846 846 846 846 847 848 848 849 849 849 850 850 850 851 851 852 852 853 853 854 854 854 855 855 856 856 857 858 858 858 858 860 860 860 861 861 861 861 861 861 861 862
813 814 816 818 819 820 822 823 824 825 826 827 828 829 830 831 832 833 833 834 835 836 837 838 839 840 841 841 839 838 840 841 841 841 842 843 844 845 845 846 846 847 847 847 847 847 848 848 849 849 850 850 850 851 851 851 852 852 852 853 854 854 855 855 855 856 856 857 857 858 859 859 859 859 861 861 861 862 862 862 862 861 861 862 862
814 815 817 818 819 821 822 824 825 826 827 828 829 830 831 832 833 833 834 835 836 837 838 839 840 841 842 842 841 840 840 842 843 843 843 844 845 846 846 847 847 848 848 848 848 848 849 849 850 850 851 851 851 852 852 852 853 853 854 854 854 855 856 856 856 857 857 858 858 859 860 860 860 861 862 862 862 862 863 863 862 862 862 863 863
814 816 817 818 820 821 823 824 825 827 827 828 830 830 832 832 833 834 835 836 836 837 838 840 841 842 842 843 843 842 842 843 844 844 844 845 846 847 847 848 849 849 849 849 849 849 850 851 851 851 852 852 852 853 853 853 854 854 854 855 856 856 857 857 857 858 859 859 859 860 861 861 861 862 863 863 863 863 863 863 863 863 864 864 864
815 816 817 819 820 822 824 825 826 827 828 829 830 831 832 833 834 835 836 836 837 838 839 840 841 842 843 844 844 844 844 845 846 846 845 845 847 848 848 849 849 849 850 850 850 850 851 852 852 852 853 853 853 854 854 855 855 855 856 856 857 857 858 858 858 859 860 860 861 861 862 862 862 863 864 864 864 864 864 863 864 865 865 865 866
815 816 817 819 821 823 824 825 827 827 828 830 831 832 833 834 835 836 836 837 838 839 840 841 842 843 844 845 845 845 846 846 847 848 847 847 848 849 849 850 850 850 851 851 851 851 852 853 853 853 853 854 854 855 856 856 856 857 857 857 858 858 858 859 859 860 861 861 862 862 863 863 863 864 865 865 865 865 865 865 865 866 866 867 868
815 816 818 820 821 824 824 826 827 828 830 831 832 833 834 835 836 837 838 838 839 840 841 842 843 844 845 845 846 846 847 847 848 849 849 848 849 849 850 850 850 851 851 852 852 853 854 854 854 854 854 854 855 856 857 857 857 858 858 858 858 859 859 859 860 861 862 863 863 864 864 864 865 866 866 866 866 866 866 866 867 867 868 869 869
815 816 819 821 822 824 826 827 828 829 830 832 833 834 835 836 837 838 839 839 840 841 841 842 844 845 845 846 847 847 848 848 849 849 850 850 850 850 850 851 851 852 852 853 853 853 855 855 856 855 855 856 856 857 858 859 859 859 859 860 860 860 860 860 861 862 863 864 865 865 865 866 866 867 867 867 867 867 868 868 869 869 870 871 871
816 817 820 821 823 825 827 828 829 830 831 833 834 835 836 837 838 839 839 840 841 842 842 844 844 846 846 847 848 848 849 849 850 850 850 851 851 851 851 852 852 853 853 853 854 854 856 856 857 856 857 857 857 858 859 860 860 860 861 861 861 861 862 862 862 863 864 865 866 866 866 867 867 867 868 868 869 869 870 870 871 871 872 872 873
817 819 820 822 824 826 827 829 830 831 832 834 834 835 837 837 839 839 840 841 841 843 843 845 845 847 847 848 849 849 850 850 851 851 851 852 852 852 852 853 853 854 854 854 855 856 857 857 858 858 858 858 859 859 860 861 861 862 862 862 863 863 863 863 864 864 865 866 866 867 867 868 868 869 869 870 871 871 872 872 872 873 873 874 874
819 820 821 823 825 827 828 829 831 832 833 834 835 836 837 838 839 840 841 842 842 843 844 845 846 847 848 849 849 850 851 851 852 852 852 853 853 853 854 854 854 855 855 855 856 857 857 858 859 859 859 859 860 861 861 862 862 863 863 864 864 864 865 865 866 866 866 867 867 868 868 869 870 870 871 871 872 872 873 873 874 874 874 875 875
820 821 822 824 825 827 828 830 831 832 833 834 835 837 838 839 840 841 842 843 844 844 845 846 847 848 849 850 850 850 851 852 852 853 853 854 854 855 855 855 856 856 856 857 857 858 858 859 859 860 860 861 861 862 863 863 864 864 864 865 865 866 866 866 867 867 868 868 868 869 869 870 871 872 872 873 873 874 874 874 875 875 875 876 876
822 823 823 825 826 828 828 830 831 832 834 835 836 837 839 840 841 842 843 844 844 845 846 847 848 849 850 850 851 851 852 853 854 854 855 856 856 856 856 857 857 857 858 858 859 859 859 860 860 861 861 862 862 863 864 865 865 866 866 866 867 867 867 868 868 868 869 869 870 870 870 871 872 873 873 874 874 874 875 875 875 876 876 877 877
823 823 825 826 826 828 828 830 832 833 835 835 837 838 840 841 842 843 843 845 845 846 847 847 849 849 851 851 852 852 853 854 855 856 856 857 857 857 858 858 858 859 859 859 860 860 860 861 861 862 862 863 864 865 866 866 867 867 868 868 868 868 868 869 869 869 870 870 871 871 872 872 873 873 874 874 875 875 875 876 876 877 877 877 878
822 824 825 826 827 828 829 831 832 834 835 836 837 838 840 841 842 843 844 845 845 847 847 848 849 850 851 852 853 853 854 855 856 857 857 858 858 859 859 859 860 860 861 860 861 861 862 862 863 863 864 864 865 866 867 867 868 868 869 869 869 869 869 869 870 870 870 871 871 872 872 873 873 874 874 875 875 876 876 877 877 877 878 878 878
821 823 825 826 827 828 829 831 832 834 835 836 838 839 841 841 842 843 844 846 846 847 848 849 850 851 852 852 853 854 855 856 857 857 858 859 860 860 860 860 861 861 862 862 862 862 863 863 864 864 865 865 866 867 868 868 868 869 869 870 870 870 870 871 871 871 871 872 872 873 873 873 874 874 875 875 876 876 877 877 877 878 878 879 879
820 822 824 826 827 828 829 831 832 834 835 836 838 839 841 842 842 843 844 845 847 848 848 849 850 851 852 853 854 855 856 857 857 858 858 860 860 861 861 862 862 862 863 863 863 864 864 865 865 866 866 866 866 867 868 869 869 869 870 870 871 871 872 872 872 872 872 872 873 873 874 874 874 875 875 875 876 877 877 878 878 879 879 879 880
819 822 824 826 827 828 829 830 832 834 835 836 838 839 840 842 842 843 845 845 847 848 849 850 851 852 852 853 854 855 856 857 858 858 859 860 860 861 862 863 863 863 864 864 865 865 865 866 866 867 868 868 867 868 869 870 870 871 871 871 871 872 872 872 872 873 873 873 873 874 874 874 875 875 876 876 877 877 878 878 879 879 880 880 880
819 821 823 825 827 828 829 830 832 834 835 836 837 839 841 842 843 844 844 845 847 848 849 850 851 852 853 853 855 855 856 857 858 858 859 859 860 861 862 863 863 864 865 865 866 866 867 867 867 868 868 868 868 868 869 870 871 871 872 872 872 873 873 873 873 873 873 874 874 874 875 875 875 876 876 877 877 878 878 879 879 880 880 880 881
819 821 823 825 827 828 829 830 832 834 835 837 838 839 841 842 843 844 844 845 847 848 849 850 851 852 853 854 855 856 856 857 858 858 859 859 860 861 862 862 863 864 865 865 866 866 867 867 867 868 868 869 869 869 869 870 871 872 873 873 873 873 873 874 874 874 874 874 874 875 875 875 876 877 877 878 878 879 879 879 880 880 881 881 881
818 821 823 825 826 828 829 830 832 834 835 836 838 839 841 842 843 844 845 845 846 847 849 850 851 852 853 854 855 856 857 857 858 858 859 859 861 861 862 862 863 864 865 865 866 867 867 867 868 868 869 869 869 870 870 870 871 872 873 873 874 874 874 874 874 875 875 875 875 876 876 876 877 878 878 879 879 879 880 880 880 881 881 881 882
818 820 822 824 826 828 829 831 832 834 835 836 838 839 841 842 843 844 844 845 846 847 849 850 851 852 853 854 855 856 856 857 858 859 859 860 861 862 862 863 863 864 865 866 866 867 868 868 869 868 869 869 869 870 871 871 872 873 874 874 874 875 874 875 875 875 876 876 876 876 877 877 878 878 879 879 880 880 880 880 881 881 881 882 882
817 819 822 824 826 827 829 831 832 833 835 836 837 839 840 841 843 844 844 845 846 847 848 849 850 852 853 854 855 856 856 857 858 859 860 860 861 862 862 863 864 865 865 866 866 867 868 869 869 869 869 869 870 871 872 872 873 873 874 875 875 875 875 875 875 876 876 876 877 877 878 878 878 879 879 880 880 880 880 881 881 881 882 882 882
817 819 821 823 825 827 829 830 832 833 834 836 837 839 840 841 842 843 845 845 847 848 848 849 851 852 853 854 854 855 856 857 858 859 859 860 861 861 862 863 864 865 865 866 867 867 868 869 869 870 870 869 870 871 872 873 873 873 874 875 876 876 876 876 876 876 877 877 877 878 878 879 879 880 880 880 881 881 881 881 881 882 882 882 882
816 818 820 822 825 827 829 831 832 833 835 836 837 838 840 841 842 843 845 846 847 848 848 850 851 852 853 854 854 855 856 857 857 858 859 860 860 861 862 862 863 864 865 866 867 867 868 869 869 870 870 870 870 871 872 872 873 874 874 876 876 876 876 876 877 877 877 877 878 879 879 880 880 880 881 881 881 881 881 881 882 882 882 882 883
816 818 820 822 824 826 828 830 831 833 835 836 837 838 839 840 842 843 845 846 846 848 849 850 851 852 853 854 854 855 856 857 857 858 859 860 860 861 862 862 863 864 865 866 866 868 868 869 870 870 871 870 871 871 872 873 874 875 875 876 876 877 877 876 877 877 878 878 878 879 879 880 880 881 881 881 882 882 882 882 882 882 882 882 883
814 817 820 821 824 825 827 830 831 833 834 836 837 838 840 841 842 843 845 846 846 848 849 850 851 852 853 854 854 855 856 857 857 858 859 860 860 861 862 862 863 864 865 866 867 868 868 869 869 870 871 871 871 871 872 873 874 875 875 875 876 877 877 877 878 878 878 878 879 879 880 880 881 881 881 881 882 882 882 882 882 882 882 882 882
813 816 819 820 823 824 826 829 830 833 834 836 837 838 840 841 842 843 844 846 847 848 849 850 851 852 853 854 854 855 856 857 857 859 859 860 861 861 862 863 863 864 865 866 867 868 868 869 869 870 871 871 872 872 872 873 874 875 875 875 876 877 877 878 878 878 879 879 879 880 880 881 881 881 881 881 882 882 882 882 882 882 882 882 882
812 815 818 819 822 823 826 828 830 832 834 835 837 838 840 841 842 843 844 846 847 848 849 850 851 852 853 854 855 855 856 857 858 859 860 860 861 861 862 863 864 864 865 865 867 867 868 869 869 870 871 871 872 872 872 873 874 875 875 875 876 877 878 878 879 879 879 879 879 880 880 881 881 881 881 881 881 881 881 881 882 882 882 882 881
810 813 816 818 820 822 825 827 829 832 833 835 837 838 840 841 842 843 844 845 847 848 848 850 851 852 853 853 855 855 856 857 857 858 859 860 860 861 862 863 864 864 865 865 866 867 868 868 869 870 871 871 872 872 872 873 874 875 875 876 876 877 878 878 879 879 879 879 879 880 880 880 881 881 881 881 881 881 881 881 881 881 881 881 881
810 812 815 817 819 821 824 826 829 831 833 835 836 838 839 840 842 843 844 845 847 848 848 849 850 851 853 854 855 855 856 856 857 858 859 860 860 861 862 863 863 864 864 865 866 867 868 868 869 870 871 871 872 872 872 873 874 875 875 876 876 877 878 878 879 879 879 879 879 879 880 880 880 880 880 880 880 880 880 880 880 881 880 880 880
808 811 814 816 818 820 822 826 828 830 832 834 836 838 839 840 842 843 844 845 846 847 848 848 850 851 852 853 855 855 856 856 857 858 858 859 860 861 862 862 863 864 864 865 866 867 868 869 869 870 871 871 872 872 872 873 873 875 875 876 877 878 878 879 879 878 878 878 879 879 879 879 879 879 880 879 880 880 880 880 880 880 879 879 879
806 810 813 815 817 819 821 824 827 829 831 833 835 837 838 840 841 842 843 844 846 847 847 848 849 851 852 853 854 855 856 856 857 858 858 859 860 860 861 862 863 863 864 865 866 867 868 868 869 870 870 871 871 872 873 873 873 875 875 876 877 878 878 878 879 878 878 878 878 878 878 878 878 878 879 879 879 879 879 879 879 879 878 878 878
804 808 811 813 816 817 820 823 825 828 830 832 834 835 837 838 839 841 842 843 845 846 847 848 849 850 851 852 854 854 855 855 856 857 858 859 859 860 861 862 863 863 864 865 866 867 867 868 869 870 870 870 871 871 873 873 873 875 876 877 878 878 878 878 878 878 877 877 877 877 877 877 878 878 878 878 878 878 878 878 878 878 877 877 877
801 806 809 812 814 816 818 821 824 826 828 830 832 834 836 837 838 840 841 843 844 845 846 847 848 849 851 852 853 854 854 855 856 857 858 859 859 860 861 862 862 863 864 864 865 866 867 868 869 869 870 870 871 871 873 873 874 875 876 877 878 878 878 877 877 877 876 877 877 876 876 876 877 877 878 878 877 877 877 877 877 877 877 877 877
799 804 807 810 813 815 817 820 823 825 827 829 831 833 835 837 838 839 840 842 843 845 845 846 848 849 850 851 853 854 854 855 856 857 858 859 860 860 861 862 863 863 864 865 865 866 867 868 868 869 870 870 871 871 872 873 874 875 876 878 879 879 879 877 876 877 876 876 876 876 876 876 877 877 877 877 876 876 876 876 876 876 876 876 876
797 801 805 808 810 813 815 818 821 823 825 828 830 833 835 837 839 840 841 842 843 844 846 846 847 848 849 851 852 853 854 854 855 857 858 859 860 860 861 862 863 863 864 865 865 866 867 867 868 869 870 870 870 871 872 873 874 875 877 878 878 880 882 878 875 875 876 875 875 875 875 876 876 876 876 876 875 875 875 875 874 874 875 875 875
794 798 801 805 808 810 813 816 819 822 824 827 829 832 834 836 838 840 841 842 843 844 845 846 847 848 849 850 851 852 853 854 855 856 857 858 859 860 861 862 862 863 864 865 865 866 867 867 868 869 869 870 870 871 872 872 873 874 875 876 878 881 880 875 874 875 874 874 875 874 875 875 875 875 875 875 874 874 873 873 873 874 874 874 874
792 795 799 802 806 809 811 815 817 820 823 825 828 831 832 834 836 837 839 840 841 842 843 845 846 847 848 849 851 851 852 853 854 855 856 858 859 860 860 861 862 863 864 864 865 866 866 867 868 868 869 869 870 870 871 872 873 873 873 874 875 877 875 873 875 876 873 873 873 874 874 873 873 873 873 874 874 874 873 873 873 873 873 873 873
789 793 797 800 804 807 809 813 815 818 821 824 826 829 831 833 834 835 837 838 839 841 842 843 844 846 847 848 850 851 852 853 853 855 856 857 858 859 860 861 862 863 864 864 865 866 866 867 867 868 869 869 870 870 870 871 872 872 873 873 872 872 872 872 874 875 875 874 872 873 873 872 872 872 872 873 873 873 873 872 872 873 872 872 872
787 791 795 798 801 804 807 810 813 816 819 822 824 826 829 831 832 834 836 837 838 839 841 843 844 846 847 848 849 850 851 852 853 854 855 857 858 858 859 860 861 862 863 864 865 865 866 866 867 868 868 869 869 869 870 870 871 871 872 872 871 871 871 871 871 872 874 875 873 872 872 872 872 871 871 872 872 872 872 872 871 871 872 872 872
784 788 792 796 799 802 805 808 811 814 817 820 822 824 827 829 831 833 834 836 838 839 840 842 844 845 846 847 848 849 851 852 853 853 855 856 857 858 858 860 861 862 862 863 864 865 866 866 867 867 868 868 869 869 869 870 870 871 871 871 871 870 870 870 870 870 871 874 875 872 870 871 871 871 871 871 871 871 871 871 870 870 870 871 871
780 785 790 794 797 800 803 806 809 812 815 818 820 823 825 827 829 831 833 835 836 838 840 841 842 844 845 846 847 848 849 851 852 853 854 854 855 857 857 859 860 861 862 863 864 865 865 866 866 867 867 868 868 869 869 870 870 870 870 870 870 870 870 869 870 870 870 872 873 870 869 870 871 871 871 870 870 870 870 870 869 869 869 870 870
778 782 787 791 795 797 800 803 806 809 812 815 818 821 823 825 827 829 831 833 834 836 838 839 841 842 843 844 846 847 848 849 851 851 853 853 854 856 856 858 859 860 862 862 863 864 864 865 866 866 867 867 868 868 869 869 869 870 870 870 870 870 870 869 869 870 870 870 870 870 869 869 869 869 869 869 869 869 869 868 868 868 868 868 869